Weather History for Placerville, CA

Change the Weather History Date:

Thursday, October 24, 2013

  Actual Average Record
Temperature  
Mean Temperature 66 °F -  
Max Temperature 73 °F 70 °F 73 °F (2013)
Min Temperature 60 °F 42 °F 39 °F (2012)
Cooling Degree Days 2    
Growing Degree Days 16 (Base 50)    
Moisture  
Dew Point 26 °F    
Average Humidity 22    
Maximum Humidity 34    
Minimum Humidity 15    
Precipitation  
Precipitation 0.00 in - - ()
Sea Level Pressure  
Sea Level Pressure 30.05 in    
Wind  
Wind Speed 8 mph (NE)    
Max Wind Speed 13 mph    
Max Gust Speed -    
Visibility 10 miles    
Events      
Averages and records for this station are not official NWS values.
T = Trace of Precipitation, MM = Missing Value Source: NWS Daily Summary

Daily Weather History Graph

Daily Weather History Graph

Search for Another Location

Airport:

Trip Planner

Search our weather history database for the weather conditions in past years. The results will help you decide how hot, cold, wet, or windy it might be!

Date:

Astronomy

Oct. 24, 2013 Rise Set
Actual Time 7:21 AM PDT 6:11 PM PDT
Civil Twilight 6:54 AM PDT 6:39 PM PDT
Nautical Twilight 6:23 AM PDT 7:10 PM PDT
Astronomical Twilight 5:52 AM PDT 7:40 PM PDT
Moon 10:42 PM PDT (10/24) 12:24 PM PDT (10/24)
Length of Visible Light 11h 44m
Length of Day
10h 50m
Waning Gibbous, 70% of the Moon is Illuminated
Oct 24
Waning Gibbous
Oct 26
Last Quarter
Nov 3
New
Nov 9
First Quarter
Nov 17
Full

Hourly Weather History & Observations

Time (PDT) Temp. Dew Point Humidity Pressure Visibility Wind Dir Wind Speed Gust Speed Precip Events Conditions
12:15 AM 62.6 °F 23.0 °F 22% 30.00 in 10.0 mi ENE 11.5 mph - N/A   Clear
12:55 AM 62.6 °F 23.0 °F 22% 30.00 in 10.0 mi ENE 11.5 mph - N/A   Clear
1:15 AM 62.6 °F 23.0 °F 22% 30.00 in 10.0 mi ENE 10.4 mph - N/A   Clear
1:35 AM 62.6 °F 21.2 °F 20% 30.00 in 10.0 mi ENE 12.7 mph - N/A   Clear
1:55 AM 62.6 °F 21.2 °F 20% 30.00 in 10.0 mi ENE 10.4 mph - N/A   Clear
2:15 AM 62.6 °F 21.2 °F 20% 30.00 in 10.0 mi ENE 11.5 mph - N/A   Clear
2:35 AM 62.6 °F 19.4 °F 19% 30.00 in 10.0 mi ENE 9.2 mph - N/A   Clear
2:55 AM 62.6 °F 19.4 °F 19% 30.00 in 10.0 mi ENE 10.4 mph - N/A   Clear
3:15 AM 62.6 °F 19.4 °F 19% 30.00 in 10.0 mi ENE 9.2 mph - N/A   Partly Cloudy
3:35 AM 62.6 °F 19.4 °F 19% 30.00 in 10.0 mi ENE 8.1 mph - N/A   Clear
3:55 AM 62.6 °F 19.4 °F 19% 30.00 in 10.0 mi ENE 9.2 mph - N/A   Clear
4:15 AM 62.6 °F 19.4 °F 19% 30.00 in 10.0 mi ENE 9.2 mph - N/A   Clear
4:35 AM 62.6 °F 19.4 °F 19% 30.00 in 10.0 mi ENE 10.4 mph - N/A   Clear
4:55 AM 62.6 °F 19.4 °F 19% 30.01 in 10.0 mi ENE 10.4 mph - N/A   Clear
5:15 AM 62.6 °F 19.4 °F 19% 30.01 in 10.0 mi East 11.5 mph - N/A   Clear
5:35 AM 62.6 °F 19.4 °F 19% 30.01 in 10.0 mi East 11.5 mph - N/A   Clear
5:55 AM 60.8 °F 19.4 °F 20% 30.01 in 10.0 mi ENE 11.5 mph - N/A   Clear
6:15 AM 62.6 °F 19.4 °F 19% 30.01 in 10.0 mi ENE 12.7 mph - N/A   Clear
6:35 AM 62.6 °F 19.4 °F 19% 30.01 in 10.0 mi ENE 12.7 mph - N/A   Clear
6:55 AM 62.6 °F 17.6 °F 18% 30.01 in 10.0 mi East 10.4 mph - N/A   Clear
7:15 AM 64.4 °F 17.6 °F 16% 30.01 in 10.0 mi ENE 5.8 mph - N/A   Clear
7:35 AM 62.6 °F 17.6 °F 18% 30.02 in 10.0 mi ENE 5.8 mph - N/A   Clear
7:55 AM 64.4 °F 17.6 °F 16% 30.02 in 10.0 mi ENE 9.2 mph - N/A   Clear
8:15 AM 64.4 °F 19.4 °F 18% 30.03 in 10.0 mi ENE 8.1 mph - N/A   Clear
8:35 AM 64.4 °F 19.4 °F 18% 30.03 in 10.0 mi ENE 8.1 mph - N/A   Clear
8:55 AM 66.2 °F 21.2 °F 18% 30.04 in 10.0 mi ENE 6.9 mph - N/A   Clear
9:15 AM 68.0 °F 21.2 °F 17% 30.05 in 10.0 mi NE 5.8 mph - N/A   Clear
9:35 AM 68.0 °F 23.0 °F 18% 30.05 in 10.0 mi ENE 3.5 mph - N/A   Clear
9:55 AM 69.8 °F 23.0 °F 17% 30.06 in 10.0 mi Calm Calm - N/A   Clear
10:15 AM 69.8 °F 19.4 °F 15% 30.06 in 10.0 mi Calm Calm - N/A   Clear
10:35 AM 71.6 °F 23.0 °F 16% 30.06 in 10.0 mi Calm Calm - N/A   Clear
10:55 AM 71.6 °F 26.6 °F 19% 30.06 in 10.0 mi SSW 3.5 mph - N/A   Clear
11:15 AM 71.6 °F 24.8 °F 17% 30.07 in 10.0 mi Calm Calm - N/A   Clear
11:35 AM 71.6 °F 24.8 °F 17% 30.07 in 10.0 mi NW 4.6 mph - N/A   Clear
11:55 AM 71.6 °F 24.8 °F 17% 30.07 in 10.0 mi NNW 4.6 mph - N/A   Clear
12:15 PM 71.6 °F 24.8 °F 17% 30.07 in 10.0 mi WNW 4.6 mph - N/A   Clear
12:35 PM 71.6 °F 24.8 °F 17% 30.07 in 10.0 mi NW 5.8 mph - N/A   Clear
12:55 PM 73.4 °F 24.8 °F 16% 30.06 in 10.0 mi West 8.1 mph - N/A   Clear
1:15 PM 73.4 °F 26.6 °F 18% 30.06 in 10.0 mi NW 5.8 mph - N/A   Clear
1:35 PM 71.6 °F 28.4 °F 20% 30.05 in 10.0 mi West 4.6 mph - N/A   Clear
1:55 PM 73.4 °F 32.0 °F 22% 30.05 in 10.0 mi WNW 6.9 mph - N/A   Clear
2:15 PM 71.6 °F 32.0 °F 23% 30.05 in 10.0 mi WNW 5.8 mph - N/A   Clear
2:35 PM 73.4 °F 32.0 °F 22% 30.05 in 10.0 mi West 9.2 mph - N/A   Clear
2:55 PM 73.4 °F 32.0 °F 22% 30.05 in 10.0 mi West 6.9 mph - N/A   Clear
3:15 PM 73.4 °F 32.0 °F 22% 30.05 in 10.0 mi West 5.8 mph - N/A   Clear
3:35 PM 73.4 °F 33.8 °F 23% 30.05 in 10.0 mi West 6.9 mph - N/A   Clear
3:55 PM 71.6 °F 33.8 °F 25% 30.05 in 10.0 mi West 8.1 mph - N/A   Clear
4:15 PM 71.6 °F 32.0 °F 23% 30.05 in 10.0 mi West 5.8 mph - N/A   Clear
4:35 PM 71.6 °F 33.8 °F 25% 30.05 in 10.0 mi NW 4.6 mph - N/A   Clear
4:55 PM 69.8 °F 35.6 °F 28% 30.05 in 10.0 mi NW 4.6 mph - N/A   Clear
5:15 PM 69.8 °F 33.8 °F 27% 30.06 in 10.0 mi NW 3.5 mph - N/A   Clear
5:35 PM 68.0 °F 35.6 °F 30% 30.06 in 10.0 mi Calm Calm - N/A   Clear
5:55 PM 68.0 °F 35.6 °F 30% 30.06 in 10.0 mi Calm Calm - N/A   Clear
6:15 PM 66.2 °F 35.6 °F 32% 30.07 in 10.0 mi Calm Calm - N/A   Clear
6:35 PM 66.2 °F 35.6 °F 32% 30.07 in 10.0 mi Calm Calm - N/A   Clear
6:55 PM 66.2 °F 35.6 °F 32% 30.07 in 10.0 mi Calm Calm - N/A   Clear
7:15 PM 66.2 °F 35.6 °F 32% 30.08 in 10.0 mi North 3.5 mph - N/A   Clear
7:35 PM 64.4 °F 35.6 °F 34% 30.08 in 10.0 mi NE 4.6 mph - N/A   Clear
7:55 PM 66.2 °F 35.6 °F 32% 30.08 in 10.0 mi ENE 4.6 mph - N/A   Clear
8:15 PM 66.2 °F 35.6 °F 32% 30.09 in 10.0 mi ENE 3.5 mph - N/A   Clear
8:35 PM 66.2 °F 33.8 °F 30% 30.09 in 10.0 mi ENE 4.6 mph - N/A   Partly Cloudy
8:55 PM 66.2 °F 32.0 °F 28% 30.10 in 10.0 mi Calm Calm - N/A   Clear
9:15 PM 64.4 °F 32.0 °F 30% 30.10 in 10.0 mi NE 4.6 mph - N/A   Clear
9:35 PM 62.6 °F 32.0 °F 32% 30.11 in 10.0 mi ENE 6.9 mph - N/A   Clear
9:55 PM 64.4 °F 28.4 °F 26% 30.11 in 10.0 mi ENE 9.2 mph - N/A   Clear
10:15 PM 64.4 °F 26.6 °F 24% 30.11 in 10.0 mi ENE 9.2 mph - N/A   Clear
10:35 PM 62.6 °F 26.6 °F 26% 30.11 in 10.0 mi East 12.7 mph - N/A   Clear
10:55 PM 62.6 °F 24.8 °F 24% 30.11 in 10.0 mi ENE 10.4 mph - N/A   Clear
11:15 PM 62.6 °F 24.8 °F 24% 30.11 in 10.0 mi ENE 10.4 mph - N/A   Clear
11:35 PM 62.6 °F 23.0 °F 22% 30.12 in 10.0 mi ENE 10.4 mph - N/A   Unknown
11:55 PM 62.6 °F 23.0 °F 22% 30.12 in 10.0 mi East 11.5 mph - N/A   Clear